Other Public Products
Issued by NWS Charleston, SC

Current Version | Previous Version | Graphics & Text | Print | Product List | Glossary On
Versions: 1 2 3 4 5 6 7 8 9 10 11 12 13 14 15 16 17 18 19 20 21 22 23 24 25 26 27 28 29 30 31 32 33 34 35 36 37 38 39 40 41 42 43 44 45 46 47 48 49 50
000 FPUS82 KCHS 152327 OPUCHS TEST...KCHS/KSAV Gateway Observations...TEST National Weather Service Charleston SC 600 PM EST MON JAN 15 2018 NOTE: "fair" indicates few or no clouds below 12,000 feet with no significant weather and/or obstructions to visibility. SCZ050-WAZ558-NCZ071-TXZ119-213-PAZ071-DCZ001-FLZ074-172-MI076- NYZ176-178-MAZ016-IL014-TNZ027-NJZ106-GAZ044-MD014-160000- ...Gateway Observations for Charleston International... CITY SKY/WX TMP DP RH WIND PRES REMARKS Chas Airport FAIR 39 18 42 N8 30.44R WCI 33 Seattle PTSUNNY 63 38 39 E14 29.88R Charlotte FAIR 35 12 38 CALM 30.42R Dallas DFW CLOUDY 47 31 53 N26G35 30.32R Dallas Love CLOUDY 48 29 47 NE23G30 30.33R Philladelphia CLOUDY 31 23 72 E7 30.52R WCI 24 Wash National CLOUDY 32 23 69 SE7 30.50R WCI 26 Baltimore CLOUDY 28 20 71 NE3 30.50S Miami LGT RAIN 70 61 73 NE8 30.20R Detroit FLURRIES 21 17 84 E3 30.25S Newark MOCLDY 29 19 66 E7 30.54R WCI 22 Laguardia FAIR 27 17 66 E14 30.54R WCI 16 J F K FAIR 26 18 71 NE12 30.55R WCI 16 Boston Logan CLOUDY 20 2 45 N14 30.58F WCI 7 Ft. Lauderdale MOCLDY 68 61 78 N14 30.20R Chicago O`Hare LGT SNOW 14 9 80 W9G18 30.24R WCI 2 Chicago Midway LGT SNOW 15 9 76 W16 30.26R WCI -1 Houston Bush MOCLDY 60 47 61 SE15 30.27S Houston Hobby MOCLDY 60 48 64 SE9 30.27R Nashville MOCLDY 44 23 43 W6 30.33S Atlanta FAIR 46 27 47 CALM 30.37F $$ GAZ044-118-TXZ119-213-NCZ071-DCZ001-MDZ014-506-PAZ021-071-NJZ106- NYZ176-178-MAZ106-OHZ011-021-055-MIZ076-KYZ091-ILZ014-INZ047- MNZ060-ONZ431-160000- ...Gateway Observations for Savannah International... CITY SKY/WX TMP DP RH WIND PRES REMARKS Savannah Arpt FAIR 43 22 43 N6 30.44R Atlanta FAIR 46 27 47 CALM 30.37F Charlotte FAIR 35 12 38 CALM 30.42R Dallas DFW CLOUDY 47 31 53 N26G35 30.32R Houston Bush MOCLDY 60 47 61 SE15 30.27S Wash National CLOUDY 32 23 69 SE7 30.50R WCI 26 Wash Dulles FAIR 25 18 74 CALM 30.47F Baltimore CLOUDY 28 20 71 NE3 30.50S Philadelphia CLOUDY 31 23 72 E7 30.52R WCI 24 Newark MOCLDY 29 19 66 E7 30.54R WCI 22 Laguardia FAIR 27 17 66 E14 30.54R WCI 16 J F K FAIR 26 18 71 NE12 30.55R WCI 16 Boston CLOUDY 20 2 45 N14 30.58F WCI 7 Pittsburg LGT SNOW 24 23 96 SE6 30.28S FOG WCI 17 Akron LGT SNOW 25 21 85 S12 30.25R VSB 3/4 WCI 14 Cleveland LGT SNOW 26 22 84 S8 30.28S FOG WCI 18 Cincinnati LGT SNOW 28 26 92 SW7 30.28R FOG WCI 21 Columbus LGT SNOW 26 26 100 S6 30.28S WCI 20 Detroit FLURRIES 21 17 84 E3 30.25S Chicago O`Hare LGT SNOW 14 9 80 W9G18 30.24R WCI 2 Minneapolis FAIR 3 -4 72 NW13 30.47R WCI -14 Indianapolis CLOUDY 18 11 74 W16 30.31R WCI 3 Toronto Canada LGT SNOW 19 14 79 E9 30.36F WCI 9 $$

USA.gov is the U.S. government's official web portal to all federal, state and local government web resources and services.